loading
|

OBJECT F, 60750

Orbit data source: Space-Track

OBJECT F, 60750 is a satellite owned by Xiamen Tianwei (CN) in SSO that was launched on Thu, 29 Aug 2024 UTC via a GUSHENXING 1 launch vehicle from the Yellow Sea Launch Area, China (YSLA). Unknown objects in Earth's orbit typically refer to objects detected orbiting the Earth but have not yet been identified or cataloged. These objects could be anything from previously untracked satellites, spent rocket stages, debris from satellite collisions, or even natural meteoroids temporarily captured by Earth's gravity.

Loading next visibility...
Loading greatness...
OBJECT F details
Identifier
60750, 2024-153F
Orbit
SSO
Last TLE update12 hours ago
Origin
Flag of CNXiamen Tianwei (CN / PRC)
ManufacturerHangsheng
Mission statusOperational
MissionUnknown
Bus & MotorTFG, Unknown motor
Mass~50 kg wet, ~50 kg dry
Launch date (UTC)
2024-08-29 (3 weeks ago)
Launch vehicle
GUSHENXING 1
Launch site
Yellow Sea Launch Area, China (YSLA)
Object typeUnknown
Radar Cross SectionMedium (>0.1 m² and <1 m²)

Expand to show TLE details & history

TLE from 12 hours ago
0 OBJECT F
1 60750U 24153F   24261.41660442  .00061066  00000-0  36527-2 0  9999
2 60750  97.6141  18.8364 0016364 224.1193 135.8732 15.10687568  2907
Epoch: 2024-09-17T09:59Z
Definitive object data (Epoch: 2024-09-17T09:59:54.621Z)
Latitude-0.00005°
Longitude-127.97275°
Altitude545.303 km
Speed7.585 km/s
True Right ascension01h 15m 20s
True Declination0° 00' 00"
Sunlit
Object was in full shadow at TLE epoch
Predictive object data (real-time)
Latitude-21.41229°
Longitude49.53694°
Altitude531.557 km
Speed7.602 km/s
Apparent Right ascension09h 58m 53s
Apparent Declination-65° 44' 35"
Sunlit
Object is in daylight
Predictive observer data (real-time)
Local Sidereal Time14:49:45
Azimuth206.77° SW
Elevation-29.433°
Doppler factor1
Orbital elements
Apogee542.395 km
Perigee519.783 km
Semi-major axis6,909.226 km
Eccentricity0.0016364
Inclination97.6141°
RAAN18.8364°
Arg. of periapsis224.1193°
True anomaly136.00357°
Mean anomaly135.8732°
Eccentric anomaly135.9384°
Mean motion3.77919 °/min
BSTAR0.0036527
Period95.26 mins
No data available

OBJECT F Visibility forecast

Observer location: 39.9160978°, -105.1181434

OBJECT F is not visible in the next 10 days
Span
Click to sort rows by Start time (UTC) header in descending order
Start Az.
Max El. time (UTC)
Max El. Az.
Max El.
End time (UTC)
End Az.